Time,TemperatureF,DewpointF,PressureIn,WindDirection,WindDirectionDegrees,WindSpeedMPH,WindSpeedGustMPH,Humidity,HourlyPrecipIn,Conditions,Clouds,dailyrainin,SolarRadiationWatts/m^2,SoftwareType,DateUTC
2013-05-08 00:03:00,63.0,-99.9,-100.00,SSW,210,1.0,3.0,-999,0.00,,,0.00,0.000000,,2013-05-08 10:03:00,
2013-05-08 00:12:00,63.0,-99.9,-100.00,SSW,210,1.0,3.0,-999,0.00,,,0.00,0.000000,,2013-05-08 10:12:00,
2013-05-08 00:42:00,62.0,-99.9,-100.00,NNW,335,1.0,4.0,-999,0.00,,,0.00,0.000000,,2013-05-08 10:42:00,
2013-05-08 00:53:00,62.0,-99.9,-100.00,NNW,335,1.0,4.0,-999,0.00,,,0.00,0.000000,,2013-05-08 10:53:00,
2013-05-08 01:02:00,62.0,-99.9,-100.00,NNW,335,1.0,4.0,-999,0.00,,,0.00,0.000000,,2013-05-08 11:02:00,
2013-05-08 01:12:00,62.0,-99.9,-100.00,NNW,335,1.0,4.0,-999,0.00,,,0.00,0.000000,,2013-05-08 11:12:00,
2013-05-08 01:22:00,62.0,-99.9,-100.00,NNW,335,1.0,4.0,-999,0.00,,,0.00,0.000000,,2013-05-08 11:22:00,
2013-05-08 01:42:00,60.0,-99.9,-100.00,North,3,2.0,5.0,-999,0.00,,,0.00,0.000000,,2013-05-08 11:42:00,
2013-05-08 01:52:00,60.0,-99.9,-100.00,North,3,2.0,5.0,-999,0.00,,,0.00,0.000000,,2013-05-08 11:52:00,
2013-05-08 02:02:00,60.0,-99.9,-100.00,North,3,2.0,5.0,-999,0.00,,,0.00,0.000000,,2013-05-08 12:02:00,
2013-05-08 02:11:00,60.0,-99.9,-100.00,North,3,2.0,5.0,-999,0.00,,,0.00,0.000000,,2013-05-08 12:11:00,
2013-05-08 02:22:00,60.0,-99.9,-100.00,North,3,2.0,5.0,-999,0.00,,,0.00,0.000000,,2013-05-08 12:22:00,
2013-05-08 02:42:00,58.0,-99.9,-100.00,North,350,2.0,4.0,-999,0.00,,,0.00,0.000000,,2013-05-08 12:42:00,
2013-05-08 02:52:00,58.0,-99.9,-100.00,North,350,2.0,4.0,-999,0.00,,,0.00,0.000000,,2013-05-08 12:52:00,
2013-05-08 03:01:00,58.0,-99.9,-100.00,North,350,2.0,4.0,-999,0.00,,,0.00,0.000000,,2013-05-08 13:01:00,
2013-05-08 03:12:00,58.0,-99.9,-100.00,North,350,2.0,4.0,-999,0.00,,,0.00,0.000000,,2013-05-08 13:12:00,
2013-05-08 03:22:00,58.0,-99.9,-100.00,North,350,2.0,4.0,-999,0.00,,,0.00,0.000000,,2013-05-08 13:22:00,
2013-05-08 03:42:00,56.0,-99.9,-100.00,North,352,3.0,6.0,-999,0.00,,,0.00,0.000000,,2013-05-08 13:42:00,
2013-05-08 03:52:00,56.0,-99.9,-100.00,North,352,3.0,6.0,-999,0.00,,,0.00,0.000000,,2013-05-08 13:52:00,
2013-05-08 04:02:00,56.0,-99.9,-100.00,North,352,3.0,6.0,-999,0.00,,,0.00,0.000000,,2013-05-08 14:02:00,
2013-05-08 04:12:00,56.0,-99.9,-100.00,North,352,3.0,6.0,-999,0.00,,,0.00,0.000000,,2013-05-08 14:12:00,
2013-05-08 04:22:00,56.0,-99.9,-100.00,North,352,3.0,6.0,-999,0.00,,,0.00,0.000000,,2013-05-08 14:22:00,
2013-05-08 04:42:00,55.0,-99.9,-100.00,North,351,3.0,6.0,-999,0.00,,,0.00,0.000000,,2013-05-08 14:42:00,
2013-05-08 04:52:00,55.0,-99.9,-100.00,North,351,3.0,6.0,-999,0.00,,,0.00,0.000000,,2013-05-08 14:52:00,
2013-05-08 05:02:00,55.0,-99.9,-100.00,North,351,3.0,6.0,-999,0.00,,,0.00,0.000000,,2013-05-08 15:02:00,
2013-05-08 05:11:00,55.0,-99.9,-100.00,North,351,3.0,6.0,-999,0.00,,,0.00,0.000000,,2013-05-08 15:11:00,
2013-05-08 05:22:00,55.0,-99.9,-100.00,North,351,3.0,6.0,-999,0.00,,,0.00,0.000000,,2013-05-08 15:22:00,
2013-05-08 05:23:00,54.0,-99.9,-100.00,North,354,4.0,6.0,-999,0.00,,,0.00,0.000000,,2013-05-08 15:23:00,
2013-05-08 05:42:00,54.0,-99.9,-100.00,North,354,4.0,6.0,-999,0.00,,,0.00,0.000000,,2013-05-08 15:42:00,
2013-05-08 05:53:00,54.0,-99.9,-100.00,North,354,4.0,6.0,-999,0.00,,,0.00,0.000000,,2013-05-08 15:53:00,
2013-05-08 06:03:00,54.0,-99.9,-100.00,North,354,4.0,6.0,-999,0.00,,,0.00,0.000000,,2013-05-08 16:03:00,
2013-05-08 06:13:00,54.0,-99.9,-100.00,North,354,4.0,6.0,-999,0.00,,,0.00,0.000000,,2013-05-08 16:13:00,
2013-05-08 06:42:00,54.0,-99.9,-100.00,North,350,4.0,7.0,-999,0.00,,,0.00,1.000000,,2013-05-08 16:42:00,
2013-05-08 06:52:00,54.0,-99.9,-100.00,North,350,4.0,7.0,-999,0.00,,,0.00,1.000000,,2013-05-08 16:52:00,
2013-05-08 07:02:00,54.0,-99.9,-100.00,North,350,4.0,7.0,-999,0.00,,,0.00,1.000000,,2013-05-08 17:02:00,
2013-05-08 07:12:00,54.0,-99.9,-100.00,North,350,4.0,7.0,-999,0.00,,,0.00,1.000000,,2013-05-08 17:12:00,
2013-05-08 07:22:00,54.0,-99.9,-100.00,North,350,4.0,7.0,-999,0.00,,,0.00,1.000000,,2013-05-08 17:22:00,
2013-05-08 07:52:00,54.0,-99.9,-100.00,North,357,4.0,6.0,-999,0.00,,,-99.99,47.000000,,2013-05-08 17:52:00,
2013-05-08 08:02:00,54.0,-99.9,-100.00,North,357,4.0,6.0,-999,0.00,,,-99.99,47.000000,,2013-05-08 18:02:00,
2013-05-08 08:12:00,54.0,-99.9,-100.00,North,357,4.0,6.0,-999,0.00,,,-99.99,47.000000,,2013-05-08 18:12:00,
2013-05-08 08:22:00,54.0,-99.9,-100.00,North,357,4.0,6.0,-999,0.00,,,-99.99,47.000000,,2013-05-08 18:22:00,
2013-05-08 08:42:00,62.0,55.0,-100.00,North,10,2.0,5.0,77,0.00,,,0.00,252.000000,,2013-05-08 18:42:00,
2013-05-08 08:52:00,62.0,55.0,-100.00,North,10,2.0,5.0,77,0.00,,,0.00,252.000000,,2013-05-08 18:52:00,
2013-05-08 09:01:00,62.0,55.0,-100.00,North,10,2.0,5.0,77,0.00,,,0.00,252.000000,,2013-05-08 19:01:00,
2013-05-08 09:11:00,62.0,55.0,-100.00,North,10,2.0,5.0,77,0.00,,,0.00,252.000000,,2013-05-08 19:11:00,
2013-05-08 09:21:00,62.0,55.0,-100.00,North,10,2.0,5.0,77,0.00,,,0.00,252.000000,,2013-05-08 19:21:00,
2013-05-08 09:42:00,68.0,59.0,-100.00,SE,142,2.0,8.0,73,0.00,,,0.00,378.000000,,2013-05-08 19:42:00,
2013-05-08 09:52:00,68.0,59.0,-100.00,SE,142,2.0,8.0,73,0.00,,,0.00,378.000000,,2013-05-08 19:52:00,
2013-05-08 10:01:00,68.0,59.0,-100.00,SE,142,2.0,8.0,73,0.00,,,0.00,378.000000,,2013-05-08 20:01:00,
2013-05-08 10:11:00,68.0,59.0,-100.00,SE,142,2.0,8.0,73,0.00,,,0.00,378.000000,,2013-05-08 20:11:00,
2013-05-08 10:22:00,68.0,59.0,-100.00,SE,142,2.0,8.0,73,0.00,,,0.00,378.000000,,2013-05-08 20:22:00,
2013-05-08 10:42:00,71.0,59.0,-100.00,SSE,151,3.0,9.0,67,0.00,,,0.00,742.000000,,2013-05-08 20:42:00,
2013-05-08 10:52:00,71.0,59.0,-100.00,SSE,151,3.0,9.0,67,0.00,,,0.00,742.000000,,2013-05-08 20:52:00,
2013-05-08 11:01:00,71.0,59.0,-100.00,SSE,151,3.0,9.0,67,0.00,,,0.00,742.000000,,2013-05-08 21:01:00,
2013-05-08 11:11:00,71.0,59.0,-100.00,SSE,151,3.0,9.0,67,0.00,,,0.00,742.000000,,2013-05-08 21:11:00,
2013-05-08 11:21:00,71.0,59.0,-100.00,SSE,151,3.0,9.0,67,0.00,,,0.00,742.000000,,2013-05-08 21:21:00,
2013-05-08 11:43:00,72.0,57.0,-100.00,SSE,166,3.0,11.0,59,0.00,,,0.00,719.000000,,2013-05-08 21:43:00,
2013-05-08 11:53:00,72.0,57.0,-100.00,SSE,166,3.0,11.0,59,0.00,,,0.00,719.000000,,2013-05-08 21:53:00,
2013-05-08 12:02:00,72.0,57.0,-100.00,SSE,166,3.0,11.0,59,0.00,,,0.00,719.000000,,2013-05-08 22:02:00,
2013-05-08 12:12:00,72.0,57.0,-100.00,SSE,166,3.0,11.0,59,0.00,,,0.00,719.000000,,2013-05-08 22:12:00,
2013-05-08 12:22:00,72.0,57.0,-100.00,SSE,166,3.0,11.0,59,0.00,,,0.00,719.000000,,2013-05-08 22:22:00,
2013-05-08 12:42:00,74.0,60.0,-100.00,SSE,163,3.0,11.0,62,0.00,,,0.00,953.000000,,2013-05-08 22:42:00,
2013-05-08 12:52:00,74.0,60.0,-100.00,SSE,163,3.0,11.0,62,0.00,,,0.00,953.000000,,2013-05-08 22:52:00,
2013-05-08 13:01:00,74.0,60.0,-100.00,SSE,163,3.0,11.0,62,0.00,,,0.00,953.000000,,2013-05-08 23:01:00,
2013-05-08 13:11:00,74.0,60.0,-100.00,SSE,163,3.0,11.0,62,0.00,,,0.00,953.000000,,2013-05-08 23:11:00,
2013-05-08 13:22:00,74.0,60.0,-100.00,SSE,163,3.0,11.0,62,0.00,,,0.00,953.000000,,2013-05-08 23:22:00,
2013-05-08 13:42:00,75.0,62.0,-100.00,South,171,3.0,11.0,65,0.00,,,0.00,880.000000,,2013-05-08 23:42:00,
2013-05-08 13:52:00,75.0,62.0,-100.00,South,171,3.0,11.0,65,0.00,,,0.00,880.000000,,2013-05-08 23:52:00,
2013-05-08 14:02:00,75.0,62.0,-100.00,South,171,3.0,11.0,65,0.00,,,0.00,880.000000,,2013-05-09 00:02:00,
2013-05-08 14:11:00,75.0,62.0,-100.00,South,171,3.0,11.0,65,0.00,,,0.00,880.000000,,2013-05-09 00:11:00,
2013-05-08 14:21:00,75.0,62.0,-100.00,South,171,3.0,11.0,65,0.00,,,0.00,880.000000,,2013-05-09 00:21:00,
2013-05-08 14:42:00,75.0,62.0,-100.00,South,176,3.0,11.0,63,0.00,,,0.00,779.000000,,2013-05-09 00:42:00,
2013-05-08 14:52:00,75.0,62.0,-100.00,South,176,3.0,11.0,63,0.00,,,0.00,779.000000,,2013-05-09 00:52:00,
2013-05-08 15:01:00,75.0,62.0,-100.00,South,176,3.0,11.0,63,0.00,,,0.00,779.000000,,2013-05-09 01:01:00,
2013-05-08 15:11:00,75.0,62.0,-100.00,South,176,3.0,11.0,63,0.00,,,0.00,779.000000,,2013-05-09 01:11:00,
2013-05-08 15:22:00,75.0,62.0,-100.00,South,176,3.0,11.0,63,0.00,,,0.00,779.000000,,2013-05-09 01:22:00,
2013-05-08 15:42:00,72.0,62.0,-100.00,South,174,3.0,13.0,70,0.00,,,0.00,542.000000,,2013-05-09 01:42:00,
2013-05-08 15:52:00,72.0,62.0,-100.00,South,174,3.0,13.0,70,0.00,,,0.00,542.000000,,2013-05-09 01:52:00,
2013-05-08 16:02:00,72.0,62.0,-100.00,South,174,3.0,13.0,70,0.00,,,0.00,542.000000,,2013-05-09 02:02:00,
2013-05-08 16:11:00,72.0,62.0,-100.00,South,174,3.0,13.0,70,0.00,,,0.00,542.000000,,2013-05-09 02:11:00,
2013-05-08 16:21:00,72.0,62.0,-100.00,South,174,3.0,13.0,70,0.00,,,0.00,542.000000,,2013-05-09 02:21:00,
2013-05-08 17:01:00,71.0,65.0,-100.00,South,171,3.0,11.0,81,0.00,,,0.00,359.000000,,2013-05-09 03:01:00,
2013-05-08 17:11:00,71.0,65.0,-100.00,South,171,3.0,11.0,81,0.00,,,0.00,359.000000,,2013-05-09 03:11:00,
2013-05-08 17:21:00,71.0,65.0,-100.00,South,171,3.0,11.0,81,0.00,,,0.00,359.000000,,2013-05-09 03:21:00,
2013-05-08 17:43:00,69.0,63.0,-100.00,South,177,2.0,7.0,82,0.00,,,0.00,277.000000,,2013-05-09 03:43:00,
2013-05-08 17:53:00,69.0,63.0,-100.00,South,177,2.0,7.0,82,0.00,,,0.00,277.000000,,2013-05-09 03:53:00,
2013-05-08 18:03:00,69.0,63.0,-100.00,South,177,2.0,7.0,82,0.00,,,0.00,277.000000,,2013-05-09 04:03:00,
2013-05-08 18:12:00,69.0,63.0,-100.00,South,177,2.0,7.0,82,0.00,,,0.00,277.000000,,2013-05-09 04:12:00,
2013-05-08 18:22:00,69.0,63.0,-100.00,South,177,2.0,7.0,82,0.00,,,0.00,277.000000,,2013-05-09 04:22:00,
2013-05-08 18:43:00,68.0,63.0,-100.00,SSW,195,1.0,4.0,85,0.00,,,0.00,138.000000,,2013-05-09 04:43:00,
2013-05-08 18:53:00,68.0,63.0,-100.00,SSW,195,1.0,4.0,85,0.00,,,0.00,138.000000,,2013-05-09 04:53:00,
2013-05-08 19:02:00,68.0,63.0,-100.00,SSW,195,1.0,4.0,85,0.00,,,0.00,138.000000,,2013-05-09 05:02:00,
2013-05-08 19:11:00,68.0,63.0,-100.00,SSW,195,1.0,4.0,85,0.00,,,0.00,138.000000,,2013-05-09 05:11:00,
2013-05-08 19:21:00,68.0,63.0,-100.00,SSW,195,1.0,4.0,85,0.00,,,0.00,138.000000,,2013-05-09 05:21:00,
2013-05-08 19:43:00,65.0,-99.9,-100.00,WNW,295,0.0,3.0,-999,0.00,,,0.00,18.000000,,2013-05-09 05:43:00,
2013-05-08 19:52:00,65.0,-99.9,-100.00,WNW,295,0.0,3.0,-999,0.00,,,0.00,18.000000,,2013-05-09 05:52:00,
2013-05-08 20:02:00,65.0,-99.9,-100.00,WNW,295,0.0,3.0,-999,0.00,,,0.00,18.000000,,2013-05-09 06:02:00,
2013-05-08 20:12:00,65.0,-99.9,-100.00,WNW,295,0.0,3.0,-999,0.00,,,0.00,18.000000,,2013-05-09 06:12:00,
2013-05-08 20:22:00,65.0,-99.9,-100.00,WNW,295,0.0,3.0,-999,0.00,,,0.00,18.000000,,2013-05-09 06:22:00,
2013-05-08 20:42:00,61.0,-99.9,-100.00,North,359,1.0,2.0,-999,0.00,,,0.00,0.000000,,2013-05-09 06:42:00,
2013-05-08 20:52:00,61.0,-99.9,-100.00,North,359,1.0,2.0,-999,0.00,,,0.00,0.000000,,2013-05-09 06:52:00,
2013-05-08 21:02:00,61.0,-99.9,-100.00,North,359,1.0,2.0,-999,0.00,,,0.00,0.000000,,2013-05-09 07:02:00,
2013-05-08 21:12:00,61.0,-99.9,-100.00,North,359,1.0,2.0,-999,0.00,,,0.00,0.000000,,2013-05-09 07:12:00,
2013-05-08 21:22:00,61.0,-99.9,-100.00,North,359,1.0,2.0,-999,0.00,,,0.00,0.000000,,2013-05-09 07:22:00,
2013-05-08 21:43:00,61.0,-99.9,-100.00,North,350,2.0,3.0,-999,0.00,,,0.00,0.000000,,2013-05-09 07:43:00,
2013-05-08 21:52:00,61.0,-99.9,-100.00,North,350,2.0,3.0,-999,0.00,,,0.00,0.000000,,2013-05-09 07:52:00,
2013-05-08 22:02:00,61.0,-99.9,-100.00,North,350,2.0,3.0,-999,0.00,,,0.00,0.000000,,2013-05-09 08:02:00,
2013-05-08 22:11:00,61.0,-99.9,-100.00,North,350,2.0,3.0,-999,0.00,,,0.00,0.000000,,2013-05-09 08:11:00,
2013-05-08 22:22:00,61.0,-99.9,-100.00,North,350,2.0,3.0,-999,0.00,,,0.00,0.000000,,2013-05-09 08:22:00,
2013-05-08 22:42:00,58.0,-99.9,-100.00,North,354,2.0,4.0,-999,0.00,,,0.00,0.000000,,2013-05-09 08:42:00,
2013-05-08 22:52:00,58.0,-99.9,-100.00,North,354,2.0,4.0,-999,0.00,,,0.00,0.000000,,2013-05-09 08:52:00,
2013-05-08 23:02:00,58.0,-99.9,-100.00,North,354,2.0,4.0,-999,0.00,,,0.00,0.000000,,2013-05-09 09:02:00,
2013-05-08 23:12:00,58.0,-99.9,-100.00,North,354,2.0,4.0,-999,0.00,,,0.00,0.000000,,2013-05-09 09:12:00,
2013-05-08 23:22:00,58.0,-99.9,-100.00,North,354,2.0,4.0,-999,0.00,,,0.00,0.000000,,2013-05-09 09:22:00,
2013-05-08 23:23:00,59.0,-99.9,-100.00,North,355,2.0,5.0,-999,0.00,,,0.00,0.000000,,2013-05-09 09:23:00,
2013-05-08 23:43:00,59.0,-99.9,-100.00,North,355,2.0,5.0,-999,0.00,,,0.00,0.000000,,2013-05-09 09:43:00,
2013-05-08 23:53:00,59.0,-99.9,-100.00,North,355,2.0,5.0,-999,0.00,,,0.00,0.000000,,2013-05-09 09:53:00,